TimeCDT,TemperatureF,Dew PointF,Humidity,Sea Level PressureIn,VisibilityMPH,Wind Direction,Wind SpeedMPH,Gust SpeedMPH,PrecipitationIn,Events,Conditions,WindDirDegrees,DateUTC
12:28 AM,48.2,35.6,62,30.21,0.2,Calm,Calm,-,N/A,,Haze,0,2013-03-30 05:28:00
12:52 AM,48.9,37.0,64,30.22,0.2,Calm,Calm,-,N/A,,Haze,0,2013-03-30 05:52:00
2:52 AM,46.9,37.0,68,30.21,0.2,South,3.5,-,N/A,,Haze,180,2013-03-30 07:52:00
3:52 AM,46.9,37.0,68,30.19,0.2,East,3.5,-,N/A,,Haze,100,2013-03-30 08:52:00
4:49 AM,48.2,37.4,66,30.19,0.2,Calm,Calm,-,N/A,,Haze,0,2013-03-30 09:49:00
4:52 AM,48.0,37.0,66,30.19,0.2,Calm,Calm,-,0.01,,Haze,0,2013-03-30 09:52:00
5:07 AM,48.2,37.4,66,30.18,0.2,East,3.5,-,N/A,,Haze,100,2013-03-30 10:07:00
5:52 AM,48.9,39.0,69,30.18,0.2,SE,4.6,-,N/A,,Haze,130,2013-03-30 10:52:00
6:22 AM,48.2,39.2,71,30.18,0.2,SE,6.9,-,N/A,,Haze,130,2013-03-30 11:22:00
6:52 AM,48.9,39.0,69,30.19,0.2,ESE,4.6,-,N/A,,Haze,120,2013-03-30 11:52:00
7:52 AM,51.1,41.0,68,30.19,0.2,SE,4.6,-,N/A,,Haze,130,2013-03-30 12:52:00
8:10 AM,51.8,42.8,71,30.19,0.8,ESE,4.6,25.3,N/A,,Haze,120,2013-03-30 13:10:00
8:17 AM,51.8,42.8,71,30.18,1.2,ESE,5.8,-,N/A,,Haze,120,2013-03-30 13:17:00
8:30 AM,51.8,42.8,71,30.18,2.5,ESE,6.9,-,N/A,,Haze,120,2013-03-30 13:30:00
8:52 AM,55.0,43.0,64,30.18,3.0,East,4.6,-,N/A,,Haze,100,2013-03-30 13:52:00
9:38 AM,55.4,44.6,67,30.17,6.0,ESE,6.9,-,N/A,,Haze,110,2013-03-30 14:38:00
9:52 AM,55.9,45.0,67,30.17,6.0,SE,8.1,-,N/A,,Haze,130,2013-03-30 14:52:00
10:21 AM,57.2,44.6,63,30.16,8.0,SE,6.9,-,N/A,,Scattered Clouds,130,2013-03-30 15:21:00
10:28 AM,57.2,44.6,63,30.15,8.0,ESE,5.8,-,N/A,,Mostly Cloudy,120,2013-03-30 15:28:00
10:52 AM,59.0,45.0,60,30.14,9.0,ESE,4.6,-,N/A,,Overcast,120,2013-03-30 15:52:00
11:13 AM,59.0,44.6,59,30.14,10.0,SSE,8.1,-,N/A,,Overcast,160,2013-03-30 16:13:00
12:52 PM,60.1,44.1,55,30.11,10.0,South,11.5,-,N/A,,Mostly Cloudy,180,2013-03-30 17:52:00
1:52 PM,59.0,44.1,58,30.07,10.0,South,10.4,-,N/A,,Overcast,180,2013-03-30 18:52:00
2:52 PM,57.9,43.0,58,30.05,9.0,SSE,6.9,-,N/A,,Overcast,150,2013-03-30 19:52:00
3:38 PM,57.2,42.8,59,30.03,8.0,Calm,Calm,-,N/A,,Overcast,0,2013-03-30 20:38:00
3:52 PM,59.0,43.0,55,30.03,8.0,Calm,Calm,-,N/A,,Overcast,0,2013-03-30 20:52:00
4:30 PM,59.0,44.6,59,30.01,9.0,SSE,6.9,-,N/A,,Overcast,150,2013-03-30 21:30:00
4:40 PM,59.0,44.6,59,30.00,9.0,SSE,4.6,-,N/A,,Overcast,150,2013-03-30 21:40:00
4:52 PM,59.0,44.1,58,30.00,8.0,South,3.5,-,0.00,Rain,Light Rain,170,2013-03-30 21:52:00
5:52 PM,50.0,46.9,89,29.98,3.0,NNE,3.5,-,0.04,Rain,Rain,20,2013-03-30 22:52:00
6:00 PM,50.0,48.2,94,29.98,2.0,Calm,Calm,-,0.02,Rain,Rain,0,2013-03-30 23:00:00
6:24 PM,48.2,48.2,100,29.98,1.8,NE,3.5,-,0.09,Rain,Rain,40,2013-03-30 23:24:00
6:52 PM,48.9,46.9,93,29.98,1.2,Calm,Calm,-,0.20,Rain,Rain,0,2013-03-30 23:52:00
7:12 PM,48.2,46.4,93,29.97,1.5,Calm,Calm,-,0.06,Rain,Rain,0,2013-03-31 00:12:00
7:30 PM,48.2,46.4,93,29.96,1.5,East,4.6,-,0.11,Rain,Rain,90,2013-03-31 00:30:00
7:38 PM,48.2,46.4,93,29.96,2.5,East,4.6,-,0.12,Rain,Light Rain,100,2013-03-31 00:38:00
7:49 PM,48.2,46.4,93,29.96,3.0,Calm,Calm,-,0.13,Rain,Light Rain,0,2013-03-31 00:49:00
7:52 PM,48.9,46.9,93,29.96,2.5,Calm,Calm,-,0.13,Rain,Light Rain,0,2013-03-31 00:52:00
7:55 PM,48.2,46.4,93,29.96,2.5,Calm,Calm,-,0.01,Rain,Light Rain,0,2013-03-31 00:55:00
8:14 PM,48.2,46.4,93,29.96,2.5,Calm,Calm,-,0.01,Rain,Light Rain,0,2013-03-31 01:14:00
8:24 PM,48.2,46.4,93,29.96,2.5,Calm,Calm,-,0.02,Rain,Light Rain,0,2013-03-31 01:24:00
8:43 PM,48.2,46.4,93,29.96,1.8,Calm,Calm,-,0.02,,Overcast,0,2013-03-31 01:43:00
8:52 PM,48.9,46.9,93,29.96,1.8,East,3.5,-,0.02,,Overcast,100,2013-03-31 01:52:00
8:55 PM,48.2,46.4,93,29.96,2.0,ESE,3.5,-,N/A,,Overcast,110,2013-03-31 01:55:00
9:17 PM,48.2,46.4,93,29.95,3.0,ESE,3.5,-,N/A,,Overcast,120,2013-03-31 02:17:00
9:28 PM,48.2,46.4,93,29.95,2.5,SE,3.5,-,N/A,,Overcast,130,2013-03-31 02:28:00
9:38 PM,48.2,46.4,93,29.95,2.5,SE,4.6,-,N/A,,Overcast,130,2013-03-31 02:38:00
9:52 PM,48.9,46.9,93,29.95,2.5,Calm,Calm,-,N/A,,Overcast,0,2013-03-31 02:52:00
10:03 PM,48.2,46.4,93,29.95,3.0,ESE,3.5,-,N/A,,Overcast,120,2013-03-31 03:03:00
10:27 PM,48.2,46.4,93,29.95,2.5,Calm,Calm,-,N/A,,Overcast,0,2013-03-31 03:27:00
10:52 PM,48.0,46.9,96,29.94,2.5,Calm,Calm,-,N/A,,Overcast,0,2013-03-31 03:52:00
11:00 PM,48.2,46.4,93,29.95,2.0,Calm,Calm,-,N/A,,Overcast,0,2013-03-31 04:00:00
11:09 PM,48.2,46.4,93,29.94,2.0,Calm,Calm,-,N/A,,Overcast,0,2013-03-31 04:09:00
11:30 PM,48.2,46.4,93,29.93,1.8,Calm,Calm,-,N/A,,Overcast,0,2013-03-31 04:30:00
11:52 PM,48.0,46.9,96,29.93,2.0,Calm,Calm,-,N/A,,Overcast,0,2013-03-31 04:52:00